Location: Observatorio Las Palmas
(29.0667°N, 110.9333°W)
Time: 10:57:41
(UTC-07:00)

Skynet4D Del rocket - Visible Passes

Search period start: 20 October 2014 00:00
Search period end: 30 October 2014 00:00
Orbit: 763 x 1291 km, 26.9° (Epoch: 19 October)

Date Brightness Start Highest point End Pass type
(mag) Time Alt. Az. Time Alt. Az. Time Alt. Az.
20 Oct 3.8 19:32:32 10° WSW 19:37:48 55° SSE 19:38:19 53° SE visible
21 Oct 4.3 18:21:58 10° SW 18:26:56 41° SSE 18:31:36 12° E visible
21 Oct 4.6 20:13:46 10° WSW 20:17:14 41° WSW 20:17:14 41° WSW visible
22 Oct 3.7 19:02:59 10° WSW 19:08:14 60° S 19:10:30 34° ESE visible
22 Oct 6.1 20:55:09 10° W 20:56:08 16° W 20:56:08 16° W visible
23 Oct 3.6 19:44:18 10° W 19:49:24 70° SSW 19:49:24 70° SSW visible
24 Oct 3.7 18:33:25 10° WSW 18:38:42 64° S 18:42:39 18° E visible
24 Oct 5.2 20:25:43 10° W 20:28:17 29° W 20:28:17 29° W visible
25 Oct 3.5 19:14:48 10° W 19:20:06 71° S 19:21:33 48° ESE visible
25 Oct 6.5 21:07:11 10° W 21:07:12 10° W 21:07:12 10° W visible
26 Oct 3.7 18:03:47 10° WSW 18:09:10 68° S 18:14:29 10° E visible
26 Oct 4.1 19:56:15 10° W 20:00:29 52° WSW 20:00:29 52° WSW visible
27 Oct 3.6 18:45:14 10° W 18:50:35 70° S 18:53:47 24° ESE visible
27 Oct 5.8 20:37:47 10° W 20:39:26 20° WSW 20:39:26 20° WSW visible
28 Oct 3.7 19:26:43 10° W 19:31:58 57° S 19:32:46 52° SSE visible
29 Oct 3.7 18:15:35 10° W 18:21:04 68° S 18:26:09 11° ESE visible
29 Oct 4.9 20:08:21 10° W 20:11:48 32° SW 20:11:48 32° SW visible
